Location: Unspecified
(0.0000°N, 0.0000°E)
Time: 05:47:30
(UTC+02:00)

Vanguard 1 - Visible Passes

Search period start: 23 October 2014 00:00
Search period end: 01 November 2014 23:00
Orbit: 652 x 3835 km, 34.2° (Epoch: 22 October)

Date Brightness Start Highest point End Pass type
(mag) Time Alt. Az. Time Alt. Az. Time Alt. Az.
23 Oct 14.0 00:00:00 21° SSW 00:01:23 22° SSW 00:16:31 10° SSE visible
23 Oct 13.7 02:22:30 10° SSW 02:35:47 19° S 02:45:50 10° SE visible
23 Oct 12.5 04:50:25 10° SW 05:04:25 36° SSE 05:12:33 10° E visible
23 Oct 10.6 07:16:33 10° WSW 07:27:15 65° NW 07:33:10 10° NE visible
23 Oct 13.8 21:36:17 10° W 21:52:05 34° SSW 22:12:17 10° SE visible
24 Oct 14.1 00:11:02 10° SW 00:25:55 20° S 00:39:37 10° SSE visible
24 Oct 13.5 02:45:13 10° SSW 02:59:35 22° SSE 03:09:46 10° ESE visible
24 Oct 12.0 05:12:12 10° SW 05:26:51 48° SSE 05:34:49 10° ENE visible
24 Oct 13.0 19:33:12 10° WNW 19:46:03 59° SSW 20:07:41 10° SE visible
24 Oct 13.9 22:00:10 10° WSW 22:15:43 28° SSW 22:34:23 10° SSE visible
25 Oct 14.0 00:35:57 10° SW 00:50:34 19° S 01:03:21 10° SE visible
25 Oct 13.2 03:07:25 10° SSW 03:23:01 27° SSE 03:33:19 10° ESE visible
25 Oct 11.4 05:34:09 10° SW 05:49:00 67° SSE 05:56:43 10° ENE visible
25 Oct 13.3 19:55:32 10° W 20:08:42 47° SSW 20:29:40 10° SE visible
25 Oct 14.0 22:24:36 10° WSW 22:39:45 24° SSW 22:56:50 10° SSE visible
26 Oct 13.9 01:00:03 10° SW 01:15:06 20° S 01:27:35 10° SE visible
26 Oct 12.9 02:29:24 10° SW 02:46:07 34° SSE 02:56:23 10° E visible
26 Oct 11.0 04:56:21 10° SW 05:10:50 89° NW 05:18:18 10° NE visible
26 Oct 13.6 19:18:17 10° W 19:31:39 38° SSW 19:51:38 10° SE visible
26 Oct 14.1 21:49:24 10° SW 22:04:09 21° S 22:19:49 10° SE visible
27 Oct 13.7 00:23:17 10° SSW 00:39:21 22° SSE 00:51:52 10° ESE visible
27 Oct 12.5 02:51:18 10° SW 03:08:53 44° SSE 03:18:59 10° E visible
27 Oct 11.0 05:18:53 10° WSW 05:32:25 63° NW 05:39:34 10° NE visible
27 Oct 13.8 19:41:32 10° WSW 19:54:57 31° SSW 20:13:41 10° SE visible
27 Oct 14.1 22:14:09 10° SW 22:28:49 20° S 22:43:31 10° SE visible
28 Oct 13.5 00:45:53 10° SSW 01:13:27 15° ESE 01:15:53 10° ESE visible
28 Oct 12.0 03:13:15 10° SW 03:31:22 57° SSE 03:41:10 10° ENE visible
28 Oct 11.3 05:41:51 10° WSW 05:53:48 43° NW 06:00:34 10° NNE visible
28 Oct 14.0 20:05:19 10° WSW 20:18:37 26° SSW 20:35:59 10° SSE visible
28 Oct 14.0 22:38:25 10° SW 22:53:32 20° S 23:07:52 10° SE visible
29 Oct 13.4 01:08:05 10° SW 01:36:21 18° ESE 01:39:24 10° E visible
29 Oct 11.6 03:49:19 54° SSW 03:53:32 75° SE 04:03:01 10° ENE visible
29 Oct 11.7 06:05:26 10° W 06:15:08 28° NW 06:21:13 10° NNE visible
29 Oct 14.1 20:29:32 10° SW 20:42:40 22° S 20:58:45 10° SSE visible
29 Oct 13.9 23:01:58 10° SSW 23:18:07 22° S 23:27:03 17° SE visible
30 Oct 13.2 01:30:06 10° SW 01:58:41 23° ESE 02:02:26 10° E visible
30 Oct 11.4 04:11:36 57° WSW 04:15:25 84° NW 04:24:33 10° NE visible
30 Oct 14.1 20:53:56 10° SW 21:07:04 20° S 21:22:13 10° SE visible
30 Oct 13.7 23:24:49 10° SSW 23:42:23 25° SSE 23:46:05 24° SSE visible
31 Oct 12.9 01:52:03 10° SW 02:20:38 28° E 02:25:00 10° ENE visible
31 Oct 11.4 04:33:32 50° W 04:37:03 63° NW 04:45:49 10° NE visible
31 Oct 13.8 18:47:27 10° WSW 18:58:25 26° SSW 19:14:28 10° SSE visible
31 Oct 14.1 21:18:09 10° SW 21:31:42 19° S 21:46:31 10° SE visible
31 Oct 13.6 23:47:10 10° SSW 00:05:15 30° SSE 00:05:15 30° SSE visible
01 Nov 12.6 02:14:04 10° SW 02:42:19 34° E 02:47:09 10° ENE visible
01 Nov 11.6 04:55:12 39° WNW 04:58:31 45° NW 05:06:49 10° NNE visible
01 Nov 14.0 19:11:10 10° WSW 19:22:02 22° SSW 19:36:51 10° SSE visible
01 Nov 14.0 21:41:47 10° SSW 21:56:22 20° S 22:11:29 10° SE visible
